Location: Boiro
(42.6475°N, 8.8834°W)
Time: 15:54:23
(UTC+02:00)

Explorer 7 - Pass Details

Date: 27 June 2022
Orbit: 482 x 668 km, 50.3° (Epoch: 10 August)

Event Time Altitude Azimuth Distance (km) Brightness Sun altitude
Exits shadow 02:53:32 69° 253° (WSW) 698 7.1 -23.9°
Maximum altitude 02:54:06 85° 329° (NNW) 658 7.1 -23.9°
Drops below altitude 10° 02:58:46 10° 59° (ENE) 2,015 10.1 -23.9°
Sets 03:01:03 0° 60° (ENE) 2,897 11.0 -23.8°
